"read_dt","SO2 (ppb)","flags","PMT voltage (V)","lamp voltage (V)","lamp intensity (Hz)","internal temp (C)","react chamber temp (C)","sample flow (l/min)","pres (mmHg)","SO2 bkg (ppb)","SO2 coefficient"
2015-09-25 00:41:00,1401E-3,5C000404,-0724,0806,11904,020.6,029.5,0.268,751.5,01.17,0.508
2015-09-25 00:42:00,2209E-3,5C000404,-0724,0821,12385,020.4,029.9,0.268,751.3,01.17,0.508
2015-09-25 00:43:00,2201E-3,5C000404,-0724,0821,12314,020.3,030.7,0.268,751.0,01.17,0.508
2015-09-25 00:44:00,2152E-3,5C000404,-0724,0821,12291,020.2,031.6,0.268,750.9,01.17,0.508
2015-09-25 00:45:00,2140E-3,5C000404,-0724,0821,12308,020.2,032.5,0.268,751.0,01.17,0.508
2015-09-25 00:46:00,2232E-3,5C000404,-0724,0822,12300,020.1,033.4,0.268,751.0,01.17,0.508
2015-09-25 00:47:00,2211E-3,5C000404,-0724,0822,12233,020.1,034.2,0.268,750.7,01.17,0.508
2015-09-25 00:48:00,2218E-3,5C000404,-0724,0822,12310,020.1,035.1,0.269,751.0,01.17,0.508
2015-09-25 00:49:00,2172E-3,5C000404,-0724,0822,12238,020.1,035.8,0.269,751.0,01.17,0.508
2015-09-25 00:50:00,2346E-3,5C000404,-0724,0824,12318,020.1,036.6,0.269,750.8,01.17,0.508
2015-09-25 00:51:00,2152E-3,5C000404,-0724,0823,12372,020.2,037.3,0.269,750.3,01.17,0.508
2015-09-25 00:52:00,2184E-3,5C000404,-0724,0823,12212,020.2,038.0,0.269,750.4,01.17,0.508
2015-09-25 00:53:00,2180E-3,5C000404,-0724,0824,12281,020.2,038.7,0.269,750.2,01.17,0.508
2015-09-25 00:54:00,2104E-3,5C000404,-0724,0824,12426,020.3,039.3,0.269,750.3,01.17,0.508
2015-09-25 00:55:00,2074E-3,5C000404,-0724,0824,12293,020.4,039.9,0.269,750.3,01.17,0.508
2015-09-25 00:56:00,2077E-3,5C000404,-0724,0825,12242,020.4,040.5,0.269,750.3,01.17,0.508
2015-09-25 00:57:00,2054E-3,5C000404,-0724,0825,12184,020.5,041.1,0.269,750.2,01.17,0.508
2015-09-25 00:58:00,1996E-3,5C000404,-0724,0825,12242,020.5,041.6,0.269,750.3,01.17,0.508
2015-09-25 00:59:00,2031E-3,5C000404,-0724,0825,12176,020.6,042.1,0.269,750.3,01.17,0.508
2015-09-25 01:00:00,2126E-3,5C000404,-0724,0826,12186,020.6,042.6,0.269,750.1,01.17,0.508
2015-09-25 01:01:00,1971E-3,5C000400,-0724,0826,12239,020.7,043.1,0.269,750.1,01.17,0.508
2015-09-25 01:02:00,2102E-3,5C000400,-0724,0826,12130,020.8,043.6,0.269,750.0,01.17,0.508
2015-09-25 01:03:00,2036E-3,5C000400,-0724,0826,12256,020.8,044.0,0.268,750.1,01.17,0.508
2015-09-25 01:04:00,1920E-3,5C000400,-0724,0826,12250,020.9,044.4,0.269,750.0,01.17,0.508
2015-09-25 01:05:00,1940E-3,5C000400,-0724,0825,12217,020.9,044.9,0.269,750.0,01.17,0.508
2015-09-25 01:06:00,1985E-3,5C000400,-0724,0826,12264,021.0,045.2,0.269,750.0,01.17,0.508
2015-09-25 01:07:00,2104E-3,5C000400,-0724,0826,12216,021.1,045.4,0.269,749.9,01.17,0.508
2015-09-25 01:08:00,1990E-3,5C000400,-0724,0826,12133,021.1,045.4,0.268,749.7,01.17,0.508
2015-09-25 01:09:00,1995E-3,5C000400,-0724,0826,12149,021.2,045.3,0.268,749.9,01.17,0.508
2015-09-25 01:10:00,2019E-3,5C000400,-0724,0827,12248,021.3,045.3,0.268,749.8,01.17,0.508
2015-09-25 01:11:00,1886E-3,5C000400,-0724,0826,12235,021.3,045.3,0.268,750.0,01.17,0.508
2015-09-25 01:12:00,1918E-3,5C000400,-0724,0826,12196,021.4,045.4,0.268,750.1,01.17,0.508
2015-09-25 01:13:00,1984E-3,5C000400,-0724,0826,12125,021.5,045.3,0.267,750.2,01.17,0.508
2015-09-25 01:14:00,2010E-3,5C000400,-0724,0826,12368,021.6,045.3,0.268,749.9,01.17,0.508
2015-09-25 01:15:00,1915E-3,5C000400,-0724,0826,12365,021.7,045.3,0.268,750.0,01.17,0.508
2015-09-25 01:16:00,2059E-3,5C000400,-0724,0826,12241,021.7,045.3,0.267,749.9,01.17,0.508
2015-09-25 01:17:00,1954E-3,5C000400,-0724,0826,12325,021.8,045.3,0.267,749.9,01.17,0.508
2015-09-25 01:18:00,1977E-3,5C000400,-0724,0825,12188,021.9,045.3,0.267,749.9,01.17,0.508
2015-09-25 01:19:00,1976E-3,5C000400,-0724,0826,12242,022.0,045.3,0.267,750.0,01.17,0.508
2015-09-25 01:20:00,1846E-3,5C000400,-0724,0826,12273,022.0,045.3,0.266,750.1,01.17,0.508
2015-09-25 01:21:00,1939E-3,5C000400,-0724,0826,12282,022.1,045.3,0.267,750.0,01.17,0.508
2015-09-25 01:22:00,1988E-3,5C000400,-0724,0825,12141,022.1,045.3,0.266,750.2,01.17,0.508
2015-09-25 01:23:00,2003E-3,5C000400,-0724,0825,12120,022.2,045.3,0.267,749.9,01.17,0.508
2015-09-25 01:24:00,1929E-3,5C000400,-0724,0825,12264,022.3,045.3,0.266,750.0,01.17,0.508
2015-09-25 01:25:00,1879E-3,5C000400,-0724,0826,12297,022.3,045.3,0.267,750.1,01.17,0.508
2015-09-25 01:26:00,2035E-3,5C000400,-0724,0826,12267,022.4,045.3,0.266,750.0,01.17,0.508
2015-09-25 01:27:00,1981E-3,5C000400,-0724,0826,12228,022.4,045.3,0.266,749.8,01.17,0.508
2015-09-25 01:28:00,1994E-3,5C000400,-0724,0825,12309,022.5,045.3,0.266,750.2,01.17,0.508
2015-09-25 01:29:00,2018E-3,5C000400,-0724,0825,12176,022.6,045.3,0.266,749.9,01.17,0.508
2015-09-25 01:30:00,1945E-3,5C000400,-0724,0826,12217,022.7,045.3,0.266,750.1,01.17,0.508
2015-09-25 01:31:00,1856E-3,5C000400,-0724,0825,12274,022.7,045.3,0.266,750.1,01.17,0.508
2015-09-25 01:32:00,1991E-3,5C000400,-0724,0825,12223,022.8,045.3,0.266,750.0,01.17,0.508
2015-09-25 01:33:00,1958E-3,5C000400,-0724,0825,12232,022.8,045.3,0.266,749.9,01.17,0.508
2015-09-25 01:34:00,2002E-3,5C000400,-0724,0825,12108,022.9,045.3,0.265,750.0,01.17,0.508
2015-09-25 01:35:00,2020E-3,5C000400,-0724,0825,12200,023.0,045.3,0.265,750.0,01.17,0.508
2015-09-25 01:36:00,1939E-3,5C000400,-0724,0825,12300,023.0,045.3,0.265,750.1,01.17,0.508
2015-09-25 01:37:00,1956E-3,5C000400,-0724,0825,12266,023.1,045.3,0.265,750.0,01.17,0.508
2015-09-25 01:38:00,1925E-3,5C000400,-0724,0825,12300,023.1,045.3,0.265,749.5,01.17,0.508
2015-09-25 01:39:00,1911E-3,5C000400,-0724,0825,12225,023.2,045.3,0.265,749.9,01.17,0.508
2015-09-25 01:40:00,1932E-3,5C000400,-0724,0824,12271,023.2,045.3,0.265,750.0,01.17,0.508
2015-09-25 01:41:00,1829E-3,5C000400,-0724,0825,12241,023.3,045.3,0.264,750.0,01.17,0.508
2015-09-25 01:42:00,1860E-3,5C000400,-0724,0825,12237,023.4,045.3,0.265,750.0,01.17,0.508
2015-09-25 01:43:00,1885E-3,5C000400,-0724,0824,12232,023.4,045.3,0.264,749.6,01.17,0.508
2015-09-25 01:44:00,1949E-3,5C000400,-0724,0825,12175,023.5,045.3,0.264,749.5,01.17,0.508
2015-09-25 01:45:00,1916E-3,5C000400,-0724,0825,12308,023.5,045.3,0.264,749.8,01.17,0.508
2015-09-25 01:46:00,1909E-3,5C000400,-0724,0825,12199,023.5,045.3,0.264,749.8,01.17,0.508
2015-09-25 01:47:00,2074E-3,5C000400,-0724,0825,12149,023.6,045.3,0.264,749.9,01.17,0.508
2015-09-25 01:48:00,2057E-3,5C000400,-0724,0825,12132,023.7,045.3,0.264,750.0,01.17,0.508
2015-09-25 01:49:00,1974E-3,5C000400,-0724,0825,12253,023.7,045.3,0.263,750.0,01.17,0.508
2015-09-25 01:50:00,2099E-3,5C000400,-0724,0825,12301,023.7,045.3,0.264,749.9,01.17,0.508
2015-09-25 01:51:00,2155E-3,5C000400,-0724,0825,12264,023.8,045.3,0.264,749.7,01.17,0.508
2015-09-25 01:52:00,1927E-3,5C000400,-0724,0825,12233,023.8,045.3,0.263,749.8,01.17,0.508
2015-09-25 01:53:00,1869E-3,5C000400,-0724,0825,12300,023.8,045.3,0.264,749.9,01.17,0.508
2015-09-25 01:54:00,1889E-3,5C000400,-0724,0825,12368,023.9,045.3,0.264,749.9,01.17,0.508
2015-09-25 01:55:00,1855E-3,5C000400,-0724,0825,12254,024.0,045.3,0.263,749.7,01.17,0.508
2015-09-25 01:56:00,2014E-3,5C000400,-0724,0825,12221,024.0,045.3,0.264,749.9,01.17,0.508
2015-09-25 01:57:00,1877E-3,5C000400,-0724,0825,12132,024.0,045.3,0.263,749.9,01.17,0.508
2015-09-25 01:58:00,2048E-3,5C000400,-0724,0825,12083,024.1,045.3,0.263,749.8,01.17,0.508
2015-09-25 01:59:00,1960E-3,5C000400,-0724,0825,12219,024.1,045.3,0.263,749.8,01.17,0.508
2015-09-25 02:00:00,1849E-3,5C000400,-0724,0824,12345,024.1,045.3,0.263,750.0,01.17,0.508
2015-09-25 02:01:00,1942E-3,5C000400,-0724,0825,12238,024.2,045.3,0.263,749.9,01.17,0.508
2015-09-25 02:02:00,1950E-3,5C000400,-0724,0825,12318,024.2,045.3,0.263,749.9,01.17,0.508
2015-09-25 02:03:00,1848E-3,5C000400,-0724,0824,12310,024.3,045.3,0.263,749.8,01.17,0.508
2015-09-25 02:04:00,1913E-3,5C000400,-0724,0825,12179,024.3,045.3,0.262,750.1,01.17,0.508
2015-09-25 02:05:00,1984E-3,5C000400,-0724,0826,12109,024.3,045.3,0.263,750.0,01.17,0.508
2015-09-25 02:06:00,2009E-3,5C000400,-0724,0825,12294,024.3,045.4,0.263,749.9,01.17,0.508
2015-09-25 02:07:00,2198E-3,5C000400,-0724,0825,12303,024.4,045.3,0.262,749.8,01.17,0.508
2015-09-25 02:08:00,1915E-3,5C000400,-0724,0825,12270,024.4,045.3,0.262,749.8,01.17,0.508
2015-09-25 02:09:00,2077E-3,5C000400,-0724,0825,12248,024.4,045.3,0.263,749.7,01.17,0.508
2015-09-25 02:10:00,2061E-3,5C000400,-0724,0825,12232,024.5,045.3,0.262,749.8,01.17,0.508
2015-09-25 02:11:00,1934E-3,5C000400,-0724,0825,12224,024.5,045.3,0.262,750.0,01.17,0.508
2015-09-25 02:12:00,2045E-3,5C000400,-0724,0824,12325,024.5,045.3,0.263,749.9,01.17,0.508
2015-09-25 02:13:00,1914E-3,5C000400,-0724,0825,12109,024.6,045.3,0.262,749.9,01.17,0.508
2015-09-25 02:14:00,2141E-3,5C000400,-0724,0825,12137,024.6,045.3,0.262,749.8,01.17,0.508
2015-09-25 02:15:00,2053E-3,5C000400,-0724,0826,12251,024.6,045.3,0.262,750.0,01.17,0.508
2015-09-25 02:16:00,2045E-3,5C000400,-0724,0825,12340,024.6,045.3,0.262,749.8,01.17,0.508
2015-09-25 02:17:00,1989E-3,5C000400,-0724,0825,12255,024.7,045.3,0.262,750.0,01.17,0.508
2015-09-25 02:18:00,1904E-3,5C000400,-0724,0825,12308,024.7,045.3,0.262,750.0,01.17,0.508
2015-09-25 02:19:00,2089E-3,5C000400,-0724,0825,12228,024.7,045.3,0.262,749.7,01.17,0.508
2015-09-25 02:20:00,2020E-3,5C000400,-0724,0826,12258,024.7,045.3,0.262,750.0,01.17,0.508
2015-09-25 02:21:00,2045E-3,5C000400,-0724,0824,12214,024.7,045.3,0.262,750.1,01.17,0.508
2015-09-25 02:22:00,2112E-3,5C000400,-0724,0825,12359,024.8,045.3,0.262,749.6,01.17,0.508
2015-09-25 02:23:00,1939E-3,5C000400,-0724,0825,12342,024.8,045.3,0.262,750.1,01.17,0.508
2015-09-25 02:24:00,1947E-3,5C000400,-0724,0825,12295,024.8,045.3,0.262,750.2,01.17,0.508
2015-09-25 02:25:00,1996E-3,5C000400,-0724,0825,12224,024.9,045.3,0.262,750.2,01.17,0.508
2015-09-25 02:26:00,2039E-3,5C000400,-0724,0825,12289,024.9,045.3,0.261,750.2,01.17,0.508
2015-09-25 02:27:00,1982E-3,5C000400,-0724,0825,12267,024.8,045.4,0.262,750.4,01.17,0.508
2015-09-25 02:28:00,2053E-3,5C000400,-0724,0825,12139,024.9,045.3,0.262,749.7,01.17,0.508
2015-09-25 02:29:00,1796E-3,5C000400,-0724,0825,12153,024.9,045.3,0.261,749.9,01.17,0.508
2015-09-25 02:30:00,1866E-3,5C000400,-0724,0824,12169,024.9,045.3,0.262,750.1,01.17,0.508
2015-09-25 02:31:00,1885E-3,5C000400,-0724,0825,12185,025.0,045.3,0.262,750.2,01.17,0.508
2015-09-25 02:32:00,1954E-3,5C000400,-0724,0825,12132,025.0,045.3,0.261,750.2,01.17,0.508
2015-09-25 02:33:00,2033E-3,5C000400,-0724,0826,12348,025.0,045.3,0.262,749.9,01.17,0.508
2015-09-25 02:34:00,2144E-3,5C000400,-0724,0825,12316,025.1,045.3,0.261,750.1,01.17,0.508
2015-09-25 02:35:00,1904E-3,5C000400,-0724,0825,12202,025.0,045.3,0.261,750.1,01.17,0.508
2015-09-25 02:36:00,2057E-3,5C000400,-0724,0825,12263,025.0,045.3,0.262,750.0,01.17,0.508
2015-09-25 02:37:00,1967E-3,5C000400,-0724,0824,12234,025.0,045.4,0.262,749.8,01.17,0.508
2015-09-25 02:38:00,2029E-3,5C000400,-0724,0824,12354,025.1,045.3,0.261,750.0,01.17,0.508
2015-09-25 02:39:00,1981E-3,5C000400,-0724,0825,12244,025.1,045.4,0.262,750.0,01.17,0.508
2015-09-25 02:40:00,1922E-3,5C000400,-0724,0825,12079,025.1,045.4,0.261,750.1,01.17,0.508
2015-09-25 02:41:00,2053E-3,5C000400,-0724,0824,12258,025.1,045.4,0.261,749.9,01.17,0.508
2015-09-25 02:42:00,1883E-3,5C000400,-0724,0824,12220,025.1,045.3,0.261,749.9,01.17,0.508
2015-09-25 02:43:00,2108E-3,5C000400,-0724,0824,12244,025.1,045.3,0.261,749.9,01.17,0.508
2015-09-25 02:44:00,2014E-3,5C000400,-0724,0825,12259,025.2,045.4,0.261,750.0,01.17,0.508
2015-09-25 02:45:00,1865E-3,5C000400,-0724,0825,12309,025.2,045.4,0.261,749.9,01.17,0.508
2015-09-25 02:46:00,1973E-3,5C000400,-0724,0825,12105,025.2,045.3,0.261,750.2,01.17,0.508
2015-09-25 02:47:00,2044E-3,5C000400,-0724,0825,12268,025.2,045.3,0.261,750.0,01.17,0.508
2015-09-25 02:48:00,1974E-3,5C000400,-0724,0825,12222,025.2,045.4,0.261,749.9,01.17,0.508
2015-09-25 02:49:00,1867E-3,5C000400,-0724,0825,12156,025.3,045.3,0.261,750.0,01.17,0.508
2015-09-25 02:50:00,1906E-3,5C000400,-0724,0825,12157,025.3,045.3,0.261,749.9,01.17,0.508
2015-09-25 02:51:00,2039E-3,5C000400,-0724,0824,12273,025.3,045.3,0.261,750.0,01.17,0.508
2015-09-25 02:52:00,1951E-3,5C000400,-0724,0825,12316,025.3,045.3,0.261,750.0,01.17,0.508
2015-09-25 02:53:00,1905E-3,5C000400,-0724,0825,12335,025.3,045.3,0.261,749.8,01.17,0.508
2015-09-25 02:54:00,2006E-3,5C000400,-0724,0825,12358,025.3,045.4,0.261,749.9,01.17,0.508
2015-09-25 02:55:00,2043E-3,5C000400,-0724,0825,12269,025.3,045.4,0.261,750.0,01.17,0.508
2015-09-25 02:56:00,1975E-3,5C000400,-0724,0825,12356,025.3,045.3,0.261,750.1,01.17,0.508
2015-09-25 02:57:00,1932E-3,5C000400,-0724,0825,12205,025.3,045.3,0.261,750.0,01.17,0.508
2015-09-25 02:58:00,1919E-3,5C000400,-0724,0825,12173,025.4,045.3,0.260,750.1,01.17,0.508
2015-09-25 02:59:00,2071E-3,5C000400,-0724,0825,12209,025.4,045.4,0.261,750.0,01.17,0.508
2015-09-25 03:00:00,1970E-3,5C000400,-0724,0825,12272,025.4,045.4,0.261,750.1,01.17,0.508
2015-09-25 03:01:00,1993E-3,5C000400,-0724,0825,12347,025.4,045.4,0.261,750.1,01.17,0.508
2015-09-25 03:02:00,2008E-3,5C000400,-0724,0825,12325,025.4,045.4,0.261,750.0,01.17,0.508
2015-09-25 03:03:00,1936E-3,5C000400,-0724,0825,12230,025.4,045.4,0.261,750.2,01.17,0.508
2015-09-25 03:04:00,2008E-3,5C000400,-0724,0826,12262,025.4,045.4,0.261,750.2,01.17,0.508
2015-09-25 03:05:00,1905E-3,5C000400,-0724,0825,12101,025.5,045.4,0.260,749.9,01.17,0.508
2015-09-25 03:06:00,1933E-3,5C000400,-0724,0825,12363,025.5,045.3,0.261,750.1,01.17,0.508
2015-09-25 03:07:00,1886E-3,5C000400,-0724,0825,12220,025.5,045.4,0.261,750.1,01.17,0.508
2015-09-25 03:08:00,2018E-3,5C000400,-0724,0825,12305,025.5,045.3,0.260,749.8,01.17,0.508
2015-09-25 03:09:00,2032E-3,5C000400,-0724,0826,12156,025.5,045.3,0.260,750.1,01.17,0.508
2015-09-25 03:10:00,2070E-3,5C000400,-0724,0825,12250,025.6,045.4,0.261,749.9,01.17,0.508
2015-09-25 03:11:00,1877E-3,5C000400,-0724,0824,12316,025.5,045.4,0.260,750.1,01.17,0.508
2015-09-25 03:12:00,2130E-3,5C000400,-0724,0825,12312,025.6,045.4,0.260,750.0,01.17,0.508
2015-09-25 03:13:00,1831E-3,5C000400,-0724,0825,12366,025.6,045.4,0.261,750.2,01.17,0.508
2015-09-25 03:14:00,1857E-3,5C000400,-0724,0825,12279,025.6,045.4,0.260,750.1,01.17,0.508
2015-09-25 03:15:00,1846E-3,5C000400,-0724,0825,12290,025.6,045.3,0.260,749.9,01.17,0.508
2015-09-25 03:16:00,1971E-3,5C000400,-0724,0826,12318,025.6,045.4,0.260,750.0,01.17,0.508
2015-09-25 03:17:00,1978E-3,5C000400,-0724,0824,12295,025.6,045.4,0.261,750.2,01.17,0.508
2015-09-25 03:18:00,1956E-3,5C000400,-0724,0825,12326,025.6,045.3,0.260,750.3,01.17,0.508
2015-09-25 03:19:00,2052E-3,5C000400,-0724,0824,12316,025.6,045.3,0.260,749.8,01.17,0.508
2015-09-25 03:20:00,1912E-3,5C000400,-0724,0825,12288,025.6,045.4,0.260,749.9,01.17,0.508
2015-09-25 03:21:00,1987E-3,5C000400,-0724,0826,12299,025.6,045.4,0.260,749.9,01.17,0.508
2015-09-25 03:22:00,2138E-3,5C000400,-0724,0825,12335,025.7,045.4,0.260,749.9,01.17,0.508
2015-09-25 03:23:00,1996E-3,5C000400,-0724,0825,12126,025.7,045.4,0.260,750.0,01.17,0.508
2015-09-25 03:24:00,2065E-3,5C000400,-0724,0825,12197,025.7,045.4,0.260,750.1,01.17,0.508
2015-09-25 03:25:00,2096E-3,5C000400,-0724,0825,11975,025.7,045.3,0.260,749.9,01.17,0.508
2015-09-25 03:26:00,1923E-3,5C000400,-0724,0825,12279,025.7,045.3,0.260,750.1,01.17,0.508
2015-09-25 03:27:00,2007E-3,5C000400,-0724,0825,12310,025.7,045.4,0.260,749.9,01.17,0.508
2015-09-25 03:28:00,1857E-3,5C000400,-0724,0825,12283,025.7,045.3,0.260,750.1,01.17,0.508
2015-09-25 03:29:00,2006E-3,5C000400,-0724,0825,12286,025.7,045.4,0.260,749.9,01.17,0.508
2015-09-25 03:30:00,2003E-3,5C000400,-0724,0825,12293,025.7,045.4,0.260,749.8,01.17,0.508
2015-09-25 03:31:00,2097E-3,5C000400,-0724,0825,12336,025.7,045.4,0.260,750.1,01.17,0.508
2015-09-25 03:32:00,2038E-3,5C000400,-0724,0825,12202,025.8,045.4,0.260,750.0,01.17,0.508
2015-09-25 03:33:00,2121E-3,5C000400,-0724,0825,12284,025.8,045.4,0.260,750.2,01.17,0.508
2015-09-25 03:34:00,1936E-3,5C000400,-0724,0825,12126,025.8,045.4,0.260,750.1,01.17,0.508
2015-09-25 03:35:00,2013E-3,5C000400,-0724,0825,12383,025.8,045.4,0.260,750.1,01.17,0.508
2015-09-25 03:36:00,2051E-3,5C000400,-0724,0825,12172,025.8,045.3,0.260,750.1,01.17,0.508
2015-09-25 03:37:00,1992E-3,5C000400,-0724,0824,12251,025.8,045.3,0.260,750.1,01.17,0.508
2015-09-25 03:38:00,1936E-3,5C000400,-0724,0825,12301,025.8,045.4,0.260,750.1,01.17,0.508
2015-09-25 03:39:00,2079E-3,5C000400,-0724,0825,12300,025.8,045.4,0.260,750.1,01.17,0.508
2015-09-25 03:40:00,1936E-3,5C000400,-0724,0825,12189,025.8,045.4,0.260,750.0,01.17,0.508
2015-09-25 03:41:00,2038E-3,5C000400,-0724,0825,12243,025.8,045.4,0.259,750.1,01.17,0.508
2015-09-25 03:42:00,2002E-3,5C000400,-0724,0826,12253,025.8,045.4,0.260,750.2,01.17,0.508
2015-09-25 03:43:00,1924E-3,5C000400,-0724,0825,12212,025.9,045.4,0.260,749.9,01.17,0.508
2015-09-25 03:44:00,2028E-3,5C000400,-0724,0825,12106,025.9,045.4,0.260,750.2,01.17,0.508
2015-09-25 03:45:00,2058E-3,5C000400,-0724,0825,12196,025.9,045.4,0.259,750.2,01.17,0.508
2015-09-25 03:46:00,2019E-3,5C000400,-0724,0825,12351,025.9,045.4,0.260,750.2,01.17,0.508
2015-09-25 03:47:00,2054E-3,5C000400,-0724,0825,12226,025.9,045.4,0.260,750.2,01.17,0.508
2015-09-25 03:48:00,1929E-3,5C000400,-0724,0825,12232,025.8,045.4,0.260,750.1,01.17,0.508
2015-09-25 03:49:00,1862E-3,5C000400,-0724,0825,12242,025.9,045.4,0.260,750.3,01.17,0.508
2015-09-25 03:50:00,2045E-3,5C000400,-0724,0824,12291,025.9,045.4,0.260,750.4,01.17,0.508
2015-09-25 03:51:00,1894E-3,5C000400,-0724,0825,12280,025.9,045.4,0.260,749.9,01.17,0.508
2015-09-25 03:52:00,1968E-3,5C000400,-0724,0825,12359,025.9,045.4,0.259,750.2,01.17,0.508
2015-09-25 03:53:00,1996E-3,5C000400,-0724,0825,12341,025.9,045.4,0.260,749.9,01.17,0.508
2015-09-25 03:54:00,1977E-3,5C000400,-0724,0825,12123,025.9,045.4,0.260,750.1,01.17,0.508
2015-09-25 03:55:00,2099E-3,5C000400,-0724,0825,12311,025.9,045.4,0.260,750.2,01.17,0.508
2015-09-25 03:56:00,2022E-3,5C000400,-0724,0825,12215,025.9,045.4,0.259,750.2,01.17,0.508
2015-09-25 03:57:00,2011E-3,5C000400,-0724,0825,12196,025.9,045.4,0.260,750.4,01.17,0.508
2015-09-25 03:58:00,2083E-3,5C000400,-0724,0824,12270,025.9,045.4,0.260,750.2,01.17,0.508
2015-09-25 03:59:00,1957E-3,5C000400,-0724,0824,12353,026.0,045.3,0.259,750.5,01.17,0.508
2015-09-25 04:00:00,2064E-3,5C000400,-0724,0826,12245,025.9,045.4,0.260,750.4,01.17,0.508
2015-09-25 04:01:00,1975E-3,5C000400,-0724,0825,12158,026.0,045.4,0.260,750.3,01.17,0.508
2015-09-25 04:02:00,2016E-3,5C000400,-0724,0825,12335,026.0,045.4,0.260,750.3,01.17,0.508
2015-09-25 04:03:00,2184E-3,5C000400,-0724,0825,12290,026.0,045.4,0.259,750.1,01.17,0.508
2015-09-25 04:04:00,2157E-3,5C000400,-0724,0824,12312,026.0,045.4,0.260,750.3,01.17,0.508
2015-09-25 04:05:00,2000E-3,5C000400,-0724,0826,12135,026.0,045.4,0.260,750.3,01.17,0.508
2015-09-25 04:06:00,2170E-3,5C000400,-0724,0825,12310,026.0,045.4,0.259,750.5,01.17,0.508
2015-09-25 04:07:00,2034E-3,5C000400,-0724,0825,12265,026.0,045.4,0.260,750.7,01.17,0.508
2015-09-25 04:08:00,1987E-3,5C000400,-0724,0825,12143,026.0,045.4,0.260,750.6,01.17,0.508
2015-09-25 04:09:00,1927E-3,5C000400,-0724,0825,12355,026.0,045.4,0.259,750.6,01.17,0.508
2015-09-25 04:10:00,1952E-3,5C000400,-0724,0825,12245,026.0,045.4,0.260,750.6,01.17,0.508
2015-09-25 04:11:00,2095E-3,5C000400,-0724,0825,12387,026.0,045.4,0.260,750.0,01.17,0.508
2015-09-25 04:12:00,2045E-3,5C000400,-0724,0825,12341,026.0,045.4,0.259,750.6,01.17,0.508
2015-09-25 04:13:00,1993E-3,5C000400,-0724,0825,12226,026.0,045.4,0.259,750.4,01.17,0.508
2015-09-25 04:14:00,1972E-3,5C000400,-0724,0825,12153,026.0,045.4,0.260,750.7,01.17,0.508
2015-09-25 04:15:00,1940E-3,5C000400,-0724,0825,12283,026.0,045.4,0.259,750.6,01.17,0.508
2015-09-25 04:16:00,1901E-3,5C000400,-0724,0824,12240,026.0,045.4,0.259,750.6,01.17,0.508
2015-09-25 04:17:00,1938E-3,5C000400,-0724,0825,12377,026.0,045.4,0.260,750.6,01.17,0.508
2015-09-25 04:18:00,1982E-3,5C000400,-0724,0825,12332,026.0,045.4,0.259,750.5,01.17,0.508
2015-09-25 04:19:00,1984E-3,5C000400,-0724,0825,12238,026.1,045.4,0.259,750.7,01.17,0.508
2015-09-25 04:20:00,1910E-3,5C000400,-0724,0825,12285,026.1,045.4,0.260,750.9,01.17,0.508
2015-09-25 04:21:00,1967E-3,5C000400,-0724,0825,12233,026.1,045.4,0.259,750.7,01.17,0.508
2015-09-25 04:22:00,2095E-3,5C000400,-0724,0825,12288,026.1,045.4,0.259,750.8,01.17,0.508
2015-09-25 04:23:00,1968E-3,5C000400,-0724,0824,12261,026.1,045.4,0.260,750.6,01.17,0.508
2015-09-25 04:24:00,2109E-3,5C000400,-0724,0824,12380,026.1,045.4,0.259,750.7,01.17,0.508
2015-09-25 04:25:00,1966E-3,5C000400,-0724,0825,12180,026.1,045.4,0.259,750.9,01.17,0.508
2015-09-25 04:26:00,2033E-3,5C000400,-0724,0825,12254,026.1,045.4,0.260,750.6,01.17,0.508
2015-09-25 04:27:00,2094E-3,5C000400,-0724,0825,12263,026.1,045.4,0.259,750.7,01.17,0.508
2015-09-25 04:28:00,1993E-3,5C000400,-0724,0825,12344,026.1,045.3,0.259,750.5,01.17,0.508
2015-09-25 04:29:00,1968E-3,5C000400,-0724,0825,12241,026.1,045.4,0.259,750.7,01.17,0.508
2015-09-25 04:30:00,1923E-3,5C000400,-0724,0825,12284,026.1,045.4,0.259,750.5,01.17,0.508
2015-09-25 04:31:00,2047E-3,5C000400,-0724,0826,12363,026.1,045.4,0.259,750.6,01.17,0.508
2015-09-25 04:32:00,2063E-3,5C000400,-0724,0825,12303,026.1,045.4,0.259,750.2,01.17,0.508
2015-09-25 04:33:00,1967E-3,5C000400,-0724,0825,12334,026.1,045.4,0.260,750.8,01.17,0.508
2015-09-25 04:34:00,2151E-3,5C000400,-0724,0825,12309,026.1,045.4,0.259,750.9,01.17,0.508
2015-09-25 04:35:00,2070E-3,5C000400,-0724,0826,12212,026.1,045.4,0.259,750.9,01.17,0.508
2015-09-25 04:36:00,2015E-3,5C000400,-0724,0824,12224,026.1,045.4,0.259,750.8,01.17,0.508
2015-09-25 04:37:00,1903E-3,5C000400,-0724,0825,12332,026.2,045.4,0.259,750.8,01.17,0.508
2015-09-25 04:38:00,2015E-3,5C000400,-0724,0825,12184,026.1,045.4,0.260,750.7,01.17,0.508
2015-09-25 04:39:00,2099E-3,5C000400,-0724,0826,12268,026.2,045.4,0.260,750.6,01.17,0.508
2015-09-25 04:40:00,1973E-3,5C000400,-0724,0825,12266,026.2,045.4,0.259,750.5,01.17,0.508
2015-09-25 04:41:00,2011E-3,5C000400,-0724,0825,12315,026.2,045.4,0.259,750.7,01.17,0.508
2015-09-25 04:42:00,1931E-3,5C000400,-0724,0825,12245,026.2,045.4,0.259,750.7,01.17,0.508
2015-09-25 04:43:00,2093E-3,5C000400,-0724,0824,12346,026.2,045.4,0.259,751.0,01.17,0.508
2015-09-25 04:44:00,1950E-3,5C000400,-0724,0825,12357,026.2,045.4,0.259,750.7,01.17,0.508
2015-09-25 04:45:00,1943E-3,5C000400,-0724,0825,12357,026.2,045.4,0.259,750.9,01.17,0.508
2015-09-25 04:46:00,1874E-3,5C000400,-0724,0825,12196,026.2,045.4,0.259,750.9,01.17,0.508
2015-09-25 04:47:00,1959E-3,5C000400,-0724,0826,12278,026.2,045.4,0.259,750.9,01.17,0.508
2015-09-25 04:48:00,2062E-3,5C000400,-0724,0824,12199,026.2,045.4,0.259,750.7,01.17,0.508
2015-09-25 04:49:00,2070E-3,5C000400,-0724,0825,12277,026.2,045.4,0.259,751.0,01.17,0.508
2015-09-25 04:50:00,1981E-3,5C000400,-0724,0825,12308,026.2,045.4,0.259,750.9,01.17,0.508
2015-09-25 04:51:00,2086E-3,5C000400,-0724,0825,12267,026.2,045.4,0.259,750.9,01.17,0.508
2015-09-25 04:52:00,1955E-3,5C000400,-0724,0825,12240,026.2,045.4,0.259,750.9,01.17,0.508
2015-09-25 04:53:00,2082E-3,5C000400,-0724,0825,12194,026.2,045.4,0.259,750.9,01.17,0.508
2015-09-25 04:54:00,2147E-3,5C000400,-0724,0825,12221,026.2,045.4,0.259,750.5,01.17,0.508
2015-09-25 04:55:00,1931E-3,5C000400,-0724,0825,12303,026.2,045.4,0.259,750.9,01.17,0.508
2015-09-25 04:56:00,2047E-3,5C000400,-0724,0825,12281,026.2,045.4,0.259,751.0,01.17,0.508
2015-09-25 04:57:00,2139E-3,5C000400,-0724,0825,12031,026.3,045.4,0.259,750.8,01.17,0.508
2015-09-25 04:58:00,1961E-3,5C000400,-0724,0825,12188,026.2,045.4,0.259,751.0,01.17,0.508
2015-09-25 04:59:00,1931E-3,5C000400,-0724,0825,12136,026.2,045.4,0.259,751.0,01.17,0.508
2015-09-25 05:00:00,2027E-3,5C000400,-0724,0824,12166,026.3,045.4,0.259,750.8,01.17,0.508
2015-09-25 05:01:00,1956E-3,5C000400,-0724,0825,12207,026.2,045.4,0.259,751.0,01.17,0.508